CW4221 Weather Reports


Display with metric or nautical units.
time (UTC)temp
F
wind
direction
speed
MPH
gust
MPH
rain 1hr
in
rain 24hr
in
rain mn
in
humidity
%
barometer
mb
20260504171825 77 240 7.0 20.0 0.00 0.00 0.00 50 1007.0
20260504171320 77 191 3.0 24.0 0.00 0.00 0.00 51 1007.1
20260504170816 77 198 7.0 24.0 0.00 0.00 0.00 50 1007.0
20260504170313 77 223 5.0 19.0 0.00 0.00 0.00 51 1007.0
20260504160311 75 217 2.0 16.0 0.00 0.00 0.00 51 1007.7
20260504150810 72 237 2.0 15.0 0.00 0.00 0.00 52 1008.1
20260504150327 72 205 2.0 15.0 0.00 0.00 0.00 53 1008.2
20260504141328 69 242 7.0 13.0 0.00 0.00 0.00 56 1008.6
20260504140823 69 254 5.0 18.0 0.00 0.00 0.00 57 1008.7
20260504140340 69 267 1.0 18.0 0.00 0.00 0.00 58 1008.8
20260504130821 65 168 0.0 8.0 0.00 0.00 0.00 62 1009.0
20260504130318 64 215 0.0 8.0 0.00 0.00 0.00 62 1009.0
20260504120318 61 219 0.0 0.0 0.00 0.00 0.00 65 1009.4
20260504110315 61 217 0.0 0.0 0.00 0.00 0.00 64 1009.4
20260504100309 61 200 0.0 0.0 0.00 0.00 0.00 65 1009.6
20260504081844 62 211 0.0 0.0 0.00 0.00 0.00 63 1010.0
20260504081319 63 207 0.0 0.0 0.00 0.00 0.00 64 1009.9
20260504080816 63 240 0.0 0.0 0.00 0.00 0.00 64 1010.0
20260504080333 63 209 0.0 0.0 0.00 0.00 0.00 64 1010.0
20260504070320 64 236 0.0 1.0 0.00 0.00 0.00 62 1010.5
20260504050328 64 227 0.0 0.0 0.00 0.00 0.00 62 1011.1
20260504045823 64 186 0.0 0.0 0.00 0.00 0.00 62 1011.1
20260504045320 64 194 0.0 0.0 0.00 0.00 0.00 62 1011.2
20260504044817 65 227 0.0 0.0 0.00 0.00 0.00 62 1011.2
20260504044314 65 200 0.0 0.0 0.00 0.00 0.00 62 1011.3
20260504043809 65 227 0.0 0.0 0.00 0.00 0.00 61 1011.3
20260504043310 65 224 0.0 0.0 0.00 0.00 0.00 62 1011.3
20260504042827 65 215 0.0 0.0 0.00 0.00 0.00 62 1011.3
20260504042323 65 215 0.0 0.0 0.00 0.00 0.00 62 1011.4
20260504041819 65 215 0.0 0.0 0.00 0.00 0.00 62 1011.4
20260504041316 64 195 0.0 0.0 0.00 0.00 0.00 62 1011.4
20260504040813 64 211 0.0 0.0 0.00 0.00 0.00 62 1011.4
20260504040330 64 208 0.0 0.0 0.00 0.00 0.00 61 1011.6
20260504035810 65 202 0.0 0.0 0.00 0.00 0.00 61 1011.6
20260504035324 65 153 0.0 0.0 0.00 0.00 0.00 61 1011.7
20260504034820 65 176 0.0 0.0 0.00 0.00 0.00 61 1011.7
20260504034316 64 223 0.0 0.0 0.00 0.00 0.00 61 1011.7
20260504033813 64 205 0.0 0.0 0.00 0.00 0.00 61 1011.8
20260504033329 64 200 0.0 0.0 0.00 0.00 0.00 61 1011.8
20260504032825 64 195 0.0 0.0 0.00 0.00 0.00 61 1011.8
20260504032321 64 188 0.0 0.0 0.00 0.00 0.00 61 1011.8
20260504031821 64 186 0.0 0.0 0.00 0.00 0.00 61 1011.8
20260504031316 65 186 0.0 0.0 0.00 0.00 0.00 61 1011.9
20260504030814 65 184 0.0 0.0 0.00 0.00 0.00 60 1011.9
20260504030309 65 184 0.0 0.0 0.00 0.00 0.00 59 1011.9
20260504025824 65 184 0.0 0.0 0.00 0.00 0.00 59 1011.9
20260504025321 65 184 0.0 0.0 0.00 0.00 0.00 58 1011.9
20260504024816 65 182 0.0 0.0 0.00 0.00 0.00 58 1011.9
20260504024311 65 182 0.0 0.0 0.00 0.00 0.00 58 1011.9
20260504023812 66 182 0.0 0.0 0.00 0.00 0.00 57 1011.8
20260504023327 66 182 0.0 0.0 0.00 0.00 0.00 57 1011.8
20260504022822 65 181 0.0 0.0 0.00 0.00 0.00 57 1011.8
20260504022319 66 181 0.0 0.0 0.00 0.00 0.00 56 1011.8
20260504021814 66 181 0.0 0.0 0.00 0.00 0.00 55 1011.7
20260504021309 66 181 0.0 0.0 0.00 0.00 0.00 55 1011.7
20260504020826 67 180 0.0 0.0 0.00 0.00 0.00 54 1011.8
20260504020321 67 180 0.0 0.0 0.00 0.00 0.00 54 1011.8
20260504015822 67 180 0.0 0.0 0.00 0.00 0.00 54 1011.7
20260504015317 68 180 0.0 0.0 0.00 0.00 0.00 53 1011.7
20260504014814 68 173 0.0 0.0 0.00 0.00 0.00 52 1011.6
20260504014331 69 173 0.0 0.0 0.00 0.00 0.00 51 1011.7
20260504013825 69 173 0.0 0.0 0.00 0.00 0.00 50 1011.7
20260504013322 69 173 0.0 0.0 0.00 0.00 0.00 49 1011.6
20260504012817 70 173 0.0 0.0 0.00 0.00 0.00 49 1011.6
20260504012334 70 172 0.0 0.0 0.00 0.00 0.00 48 1011.4
20260504011813 71 172 0.0 0.0 0.00 0.00 0.00 47 1011.6
20260504011309 71 144 0.0 0.0 0.00 0.00 0.00 46 1011.6
20260504010825 72 232 0.0 0.0 0.00 0.00 0.00 46 1011.6
20260504010321 72 217 0.0 0.0 0.00 0.00 0.00 45 1011.6
20260504005815 73 207 0.0 0.0 0.00 0.00 0.00 44 1011.4
20260504005312 73 207 0.0 0.0 0.00 0.00 0.00 43 1011.5
20260504004809 73 184 0.0 0.0 0.00 0.00 0.00 42 1011.5
20260504004346 74 232 0.0 0.0 0.00 0.00 0.00 42 1011.4
20260504003821 74 174 0.0 0.0 0.00 0.00 0.00 41 1011.5
20260504003341 74 215 0.0 0.0 0.00 0.00 0.00 41 1011.6
20260504002837 74 219 0.0 0.0 0.00 0.00 0.00 40 1011.7
20260504002311 75 202 0.0 0.0 0.00 0.00 0.00 40 1011.6
20260504001829 75 206 0.0 1.0 0.00 0.00 0.00 39 1011.7
20260504001325 75 238 0.0 5.0 0.00 0.00 0.00 38 1011.7
20260504000822 75 225 0.0 5.0 0.00 0.00 0.00 38 1011.7
20260504000319 75 247 0.0 10.0 0.00 0.00 0.00 39 1011.7
20260503235834 76 277 0.0 10.0 0.00 0.00 0.00 38 1011.7
20260503235350 76 246 0.0 10.0 0.00 0.00 0.00 38 1011.7
20260503234829 76 217 0.0 10.0 0.00 0.00 0.00 37 1011.7
20260503234345 77 136 1.0 9.0 0.00 0.00 0.00 37 1011.7
20260503233821 77 219 0.0 9.0 0.00 0.00 0.00 38 1011.7
20260503233319 77 192 0.0 7.0 0.00 0.00 0.00 37 1011.8
20260503232813 77 247 0.0 12.0 0.00 0.00 0.00 37 1011.8
20260503232330 77 196 1.0 18.0 0.00 0.00 0.00 37 1011.9
20260503231845 77 218 5.0 18.0 0.00 0.00 0.00 37 1011.9
20260503231320 77 271 1.0 14.0 0.00 0.00 0.00 35 1011.9
20260503230836 77 207 1.0 16.0 0.00 0.00 0.00 37 1011.9
20260503230315 77 240 0.0 14.0 0.00 0.00 0.00 37 1011.9
20260503225810 77 250 1.0 12.0 0.00 0.00 0.00 38 1011.9
20260503225326 77 259 2.0 12.0 0.00 0.00 0.00 36 1011.9
20260503224822 77 274 0.0 13.0 0.00 0.00 0.00 36 1011.9
20260503224318 77 215 3.0 18.0 0.00 0.00 0.00 36 1011.9
20260503223814 0 0.0 0.0 0.00 0.00 0.00 1012.0
20260503223310 0 0.0 0.0 0.00 0.00 0.00 1012.0
20260503222810 0 0.0 0.0 0.00 0.00 0.00 1011.9
20260503222325 0 0.0 0.0 0.00 0.00 0.00 1012.0
20260503221822 0 0.0 0.0 0.00 0.00 0.00 1012.1
20260503221339 0 0.0 0.0 0.00 0.00 0.00 1012.2
20260503220814 0 0.0 0.0 0.00 0.00 0.00 1012.2
20260503220330 0 0.0 0.0 0.00 0.00 0.00 1012.3
20260503215845 0 0.0 0.0 0.00 0.00 0.00 1012.3
20260503215321 0 0.0 0.0 0.00 0.00 0.00 1012.4
20260503214817 0 0.0 0.0 0.00 0.00 0.00 1012.5
20260503214316 0 0.0 0.0 0.00 0.00 0.00 1012.5
20260503213813 0 0.0 0.0 0.00 0.00 0.00 1012.5
20260503213329 0 0.0 0.0 0.00 0.00 0.00 1012.5
20260503212824 0 0.0 0.0 0.00 0.00 0.00 1012.6
20260503212320 0 0.0 0.0 0.00 0.00 0.00 1012.8
20260503211817 0 0.0 0.0 0.00 0.00 0.00 1012.7
20260503211314 0 0.0 0.0 0.00 0.00 0.00 1012.9
20260503210809 0 0.0 0.0 0.00 0.00 0.00 1012.9
20260503210309 0 0.0 0.0 0.00 0.00 0.00 1013.0
20260503205824 0 0.0 0.0 0.00 0.00 0.00 1013.1
20260503205320 0 0.0 0.0 0.00 0.00 0.00 1013.1
20260503204817 0 0.0 0.0 0.00 0.00 0.00 1013.3
20260503204312 0 0.0 0.0 0.00 0.00 0.00 1013.3
20260503203829 0 0.0 0.0 0.00 0.00 0.00 1013.3
20260503203324 0 0.0 0.0 0.00 0.00 0.00 1013.4
20260503202820 0 0.0 0.0 0.00 0.00 0.00 1013.5
20260503202320 0 0.0 0.0 0.00 0.00 0.00 1013.6
20260503201817 0 0.0 0.0 0.00 0.00 0.00 1013.6
20260503201334 0 0.0 0.0 0.00 0.00 0.00 1013.7
20260503200810 0 0.0 0.0 0.00 0.00 0.00 1013.7
20260503200325 0 0.0 0.0 0.00 0.00 0.00 1013.9
20260503195820 0 0.0 0.0 0.00 0.00 0.00 1013.9
20260503195316 0 0.0 0.0 0.00 0.00 0.00 1014.1
20260503194817 0 0.0 0.0 0.00 0.00 0.00 1014.2
20260503194313 0 0.0 0.0 0.00 0.00 0.00 1014.3
20260503193810 0 0.0 0.0 0.00 0.00 0.00 1014.4
20260503193346 0 0.0 0.0 0.00 0.00 0.00 1014.4
20260503192821 0 0.0 0.0 0.00 0.00 0.00 1014.6
20260503192317 0 0.0 0.0 0.00 0.00 0.00 1014.6
20260503191812 0 0.0 0.0 0.00 0.00 0.00 1014.7
20260503191328 0 0.0 0.0 0.00 0.00 0.00 1014.8
20260503190845 0 0.0 0.0 0.00 0.00 0.00 1014.9
20260503190324 0 0.0 0.0 0.00 0.00 0.00 1014.9
20260503185838 0 0.0 0.0 0.00 0.00 0.00 1015.0
20260503185314 0 0.0 0.0 0.00 0.00 0.00 1015.0
20260503184812 0 0.0 0.0 0.00 0.00 0.00 1015.1
20260503184328 0 0.0 0.0 0.00 0.00 0.00 1015.2
20260503183823 0 0.0 0.0 0.00 0.00 0.00 1015.2
20260503183319 0 0.0 0.0 0.00 0.00 0.00 1015.4
20260503182819 0 0.0 0.0 0.00 0.00 0.00 1015.5
20260503182315 0 0.0 0.0 0.00 0.00 0.00 1015.6
20260503181811 0 0.0 0.0 0.00 0.00 0.00 1015.8
20260503181328 0 0.0 0.0 0.00 0.00 0.00 1015.8
20260503180824 0 0.0 0.0 0.00 0.00 0.00 1015.9
20260503180341 0 0.0 0.0 0.00 0.00 0.00 1016.0
20260503175817 0 0.0 0.0 0.00 0.00 0.00 1016.0
20260503175312 0 0.0 0.0 0.00 0.00 0.00 1016.3
20260503174832 0 0.0 0.0 0.00 0.00 0.00 1016.3
20260503174328 0 0.0 0.0 0.00 0.00 0.00 1016.4
20260503173825 0 0.0 0.0 0.00 0.00 0.00 1016.5
20260503173341 0 0.0 0.0 0.00 0.00 0.00 1016.6
20260503172815 0 0.0 0.0 0.00 0.00 0.00 1016.8
20260503172331 0 0.0 0.0 0.00 0.00 0.00 1016.8